Pittsburg, KS

6:02 AM CST on November 21, 2019 (GMT -0600)
Atkinson Municipal

Weather History for KPTS - October, 2019

Change the Weather History Date:

Monday, October 21, 2019

  Actual Average (KJLN) Record (KJLN)
Temperature  
Mean Temperature 54 °F -  
Max Temperature 64 °F 70 °F 89 °F (1978)
Min Temperature 45 °F 47 °F 27 °F (1987)
Degree Days  
Heating Degree Days 10    
Growing Degree Days 4 (Base 50)    
Moisture  
Dew Point 42 °F    
Average Humidity 65    
Maximum Humidity 98    
Minimum Humidity 32    
Precipitation  
Precipitation 0.14 in - - ()
Sea Level Pressure  
Sea Level Pressure 29.71 in    
Wind  
Wind Speed 8 mph (West)    
Max Wind Speed 23 mph    
Max Gust Speed 36 mph    
Visibility 10 miles    
Events Rain , Thunderstorm    
Averages and records for this station are not official NWS values.
T = Trace of Precipitation, MM = Missing Value Source: NWS Daily Summary

Daily Weather History Graph

Daily Weather History Graph

Search for Another Location

Airport or City:

Astronomy

Oct. 21, 2019 Rise Set
Actual Time 7:32 AM CDT 6:34 PM CDT
Civil Twilight 7:05 AM CDT 7:00 PM CDT
Nautical Twilight 6:35 AM CDT 7:30 PM CDT
Astronomical Twilight 6:05 AM CDT 8:01 PM CDT
Moon No Moon Rise 2:47 PM CDT
Length of Visible Light 11h 54m
Length of Day
11h 01m
Waning Gibbous, 48% of the Moon is Illuminated
Oct 21
Waning Gibbous
Oct 27
New
Nov 4
First Quarter
Nov 12
Full
Nov 19
Last Quarter

Hourly Weather History & Observations

Time (CDT) Temp. Windchill Dew Point Humidity Pressure Visibility Wind Dir Wind Speed Gust Speed Precip Events Conditions
12:15 AM 61.7 °F - 60.3 °F 95% 29.57 in 5.0 mi South 3.5 mph - 0.04 in Rain , Thunderstorm Thunderstorms and Rain
12:35 AM 61.2 °F - 60.1 °F 96% 29.50 in 7.0 mi SE 9.2 mph - 0.09 in Rain , Thunderstorm Thunderstorms and Rain
12:55 AM 60.8 °F - 59.9 °F 97% 29.48 in 7.0 mi East 5.8 mph - 0.12 in Rain , Thunderstorm Thunderstorms and Rain
1:15 AM 60.4 °F - 59.9 °F 98% 29.53 in 10.0 mi Calm Calm - N/A   Mostly Cloudy
1:35 AM 59.0 °F - 58.1 °F 97% 29.55 in 7.0 mi NNW 8.1 mph 16.1 mph 0.01 in Rain Heavy Rain
1:55 AM 55.0 °F - 53.6 °F 95% 29.54 in 10.0 mi North 5.8 mph - 0.02 in   Overcast
2:15 AM 54.5 °F - 53.1 °F 95% 29.54 in 10.0 mi NNW 4.6 mph - N/A   Overcast
2:35 AM 54.5 °F - 52.3 °F 92% 29.55 in 10.0 mi North 3.5 mph - N/A   Overcast
3:15 AM 52.7 °F - 50.7 °F 93% 29.59 in 10.0 mi Calm Calm - N/A   Clear
3:35 AM 51.1 °F - 50.4 °F 97% 29.61 in 10.0 mi WSW 5.8 mph - N/A   Clear
3:55 AM 51.3 °F - 50.0 °F 95% 29.62 in 10.0 mi West 8.1 mph - N/A   Clear
4:35 AM 50.0 °F - 48.4 °F 94% 29.62 in 10.0 mi WSW 4.6 mph - N/A   Clear
4:55 AM 49.1 °F - 47.7 °F 95% 29.62 in 10.0 mi WSW 5.8 mph - N/A   Clear
5:15 AM 48.6 °F - 46.9 °F 94% 29.62 in 10.0 mi WSW 6.9 mph - N/A   Clear
5:35 AM 48.4 °F - 45.3 °F 89% 29.62 in 10.0 mi West 8.1 mph - N/A   Clear
5:55 AM 47.8 °F - 44.6 °F 89% 29.62 in 10.0 mi WSW 8.1 mph - N/A   Clear
6:15 AM 47.5 °F - 43.5 °F 86% 29.62 in 10.0 mi West 9.2 mph 16.1 mph N/A   Clear
6:35 AM 47.5 °F - 41.7 °F 80% 29.63 in 10.0 mi West 8.1 mph 17.3 mph N/A   Clear
6:55 AM 47.3 °F - 40.5 °F 77% 29.63 in 10.0 mi West 8.1 mph 16.1 mph N/A   Clear
7:15 AM 46.9 °F - 39.7 °F 76% 29.64 in 10.0 mi West 8.1 mph - N/A   Clear
7:35 AM 46.4 °F 42.9 °F 39.4 °F 77% 29.65 in 10.0 mi WSW 6.9 mph - N/A   Clear
7:55 AM 45.7 °F 42.0 °F 39.6 °F 79% 29.66 in 10.0 mi WSW 6.9 mph - N/A   Clear
8:15 AM 46.4 °F 41.5 °F 39.4 °F 77% 29.65 in 10.0 mi West 10.4 mph 18.4 mph N/A   Clear
8:35 AM 47.7 °F - 39.4 °F 73% 29.67 in 10.0 mi West 10.4 mph 20.7 mph N/A   Clear
8:55 AM 48.6 °F - 39.4 °F 71% 29.69 in 10.0 mi West 10.4 mph 19.6 mph N/A   Clear
9:15 AM 49.6 °F - 39.6 °F 68% 29.70 in 10.0 mi West 6.9 mph 16.1 mph N/A   Clear
9:35 AM 50.5 °F - 40.1 °F 67% 29.71 in 10.0 mi West 12.7 mph 20.7 mph N/A   Clear
9:55 AM 51.3 °F - 40.1 °F 66% 29.71 in 10.0 mi WSW 12.7 mph 18.4 mph N/A   Clear
10:35 AM 52.9 °F - 39.6 °F 61% 29.72 in 10.0 mi WSW 11.5 mph 21.9 mph N/A   Clear
10:55 AM 53.6 °F - 39.7 °F 59% 29.72 in 10.0 mi West 12.7 mph 24.2 mph N/A   Clear
11:15 AM 54.5 °F - 39.7 °F 57% 29.72 in 10.0 mi WSW 17.3 mph 25.3 mph N/A   Clear
11:35 AM 55.0 °F - 39.4 °F 56% 29.72 in 10.0 mi WSW 19.6 mph 27.6 mph N/A   Clear
11:55 AM 55.9 °F - 39.6 °F 54% 29.72 in 10.0 mi WSW 20.7 mph 27.6 mph N/A   Clear
12:15 PM 57.0 °F - 39.9 °F 53% 29.73 in 10.0 mi West 18.4 mph 23.0 mph N/A   Clear
12:35 PM 57.7 °F - 40.3 °F 52% 29.72 in 10.0 mi West 16.1 mph 27.6 mph N/A   Clear
12:55 PM 58.3 °F - 40.5 °F 52% 29.72 in 10.0 mi SW 16.1 mph 24.2 mph N/A   Clear
1:15 PM 59.7 °F - 40.1 °F 48% 29.72 in 10.0 mi West 12.7 mph 24.2 mph N/A   Clear
1:35 PM 60.6 °F - 39.4 °F 45% 29.72 in 10.0 mi WSW 17.3 mph 26.5 mph N/A   Clear
1:55 PM 61.3 °F - 39.4 °F 44% 29.71 in 10.0 mi WSW 12.7 mph 26.5 mph N/A   Clear
2:15 PM 62.2 °F - 39.4 °F 43% 29.71 in 10.0 mi West 18.4 mph 28.8 mph N/A   Scattered Clouds
2:55 PM 63.5 °F - 37.2 °F 38% 29.71 in 10.0 mi WSW 18.4 mph 29.9 mph N/A   Scattered Clouds
3:15 PM 63.9 °F - 36.1 °F 36% 29.71 in 10.0 mi WSW 11.5 mph 27.6 mph N/A   Scattered Clouds
3:55 PM 64.0 °F - 34.9 °F 34% 29.72 in 10.0 mi West 17.3 mph 27.6 mph N/A   Mostly Cloudy
4:55 PM 64.2 °F - 34.0 °F 32% 29.73 in 10.0 mi West 23.0 mph 35.7 mph N/A   Scattered Clouds
5:15 PM 63.5 °F - 33.3 °F 32% 29.73 in 10.0 mi West 11.5 mph 23.0 mph N/A   Scattered Clouds
5:35 PM 63.3 °F - 33.3 °F 33% 29.74 in 10.0 mi West 13.8 mph 25.3 mph N/A   Mostly Cloudy
5:55 PM 62.6 °F - 33.6 °F 34% 29.75 in 10.0 mi West 6.9 mph 19.6 mph N/A   Scattered Clouds
6:15 PM 61.5 °F - 34.9 °F 37% 29.75 in 10.0 mi West 8.1 mph 16.1 mph N/A   Clear
6:35 PM 60.3 °F - 35.4 °F 39% 29.77 in 10.0 mi West 6.9 mph - N/A   Scattered Clouds
6:55 PM 59.2 °F - 35.8 °F 42% 29.78 in 10.0 mi West 5.8 mph - N/A   Scattered Clouds
7:15 PM 58.1 °F - 37.0 °F 45% 29.79 in 10.0 mi West 4.6 mph - N/A   Clear
7:35 PM 56.8 °F - 37.6 °F 49% 29.81 in 10.0 mi WNW 3.5 mph - N/A   Clear
7:55 PM 55.6 °F - 37.9 °F 52% 29.82 in 10.0 mi WNW 4.6 mph - N/A   Clear
8:15 PM 54.9 °F - 37.8 °F 53% 29.84 in 10.0 mi West 4.6 mph - N/A   Clear
8:35 PM 54.9 °F - 37.0 °F 51% 29.84 in 10.0 mi West 10.4 mph 16.1 mph N/A   Clear
8:55 PM 54.7 °F - 36.5 °F 50% 29.85 in 10.0 mi West 9.2 mph - N/A   Clear
9:15 PM 54.3 °F - 36.5 °F 51% 29.86 in 10.0 mi West 6.9 mph - N/A   Clear
9:35 PM 53.6 °F - 36.9 °F 53% 29.88 in 10.0 mi West 8.1 mph - N/A   Clear
9:55 PM 52.5 °F - 37.4 °F 56% 29.89 in 10.0 mi West 6.9 mph - N/A   Clear
10:35 PM 50.9 °F - 37.4 °F 60% 29.91 in 10.0 mi WSW 5.8 mph - N/A   Clear
10:55 PM 50.7 °F - 37.4 °F 60% 29.92 in 10.0 mi West 9.2 mph 17.3 mph N/A   Clear
11:15 PM 52.0 °F - 36.7 °F 56% 29.92 in 10.0 mi West 8.1 mph - N/A   Clear
11:35 PM 51.8 °F - 36.5 °F 56% 29.93 in 10.0 mi WNW 8.1 mph - N/A   Clear
11:55 PM 51.8 °F - 36.1 °F 55% 29.94 in 10.0 mi WNW 8.1 mph 18.4 mph N/A   Clear